Regional Weather Roundup
Issued by NWS

Home | Current Version | Previous Version | Graphics & Text | Print | Product List | Glossary Off
Versions: 1 2 3 4 5 6 7 8 9 10 11 12 13 14 15 16 17 18 19 20 21 22 23 24 25 26 27 28 29 30 31 32 33 34 35 36 37 38 39 40 41 42 43 44 45 46 47 48 49 50

000
ASUS43 KTOP 220159
RWRKS

WEATHER ROUNDUP FOR KANSAS
NATIONAL WEATHER SERVICE GOODLAND KS
900 PM CDT THU AUG 21 2014

NOTE:  "FAIR" INDICATES FEW OR NO CLOUDS BELOW 12,000 FEET WITH NO
SIGNIFICANT WEATHER AND/OR OBSTRUCTIONS TO VISIBILITY.

KSZ001>006-013>018-027>032-041>047-220300-
NORTHWEST KANSAS

CITY           SKY/WX    TMP DP  RH WIND       PRES   REMARKS
GOODLAND       CLEAR     77  51  40 E6        29.98S
HAYS           PTCLDY    90  63  40 S10       29.84R
HILL CITY      CLEAR     87  65  47 NE10      29.87R
RUSSELL        MOCLDY    91  64  40 S8        29.82R
$$

KSZ061>065-074>080-084>089-220300-
SOUTHWEST KANSAS

CITY           SKY/WX    TMP DP  RH WIND       PRES   REMARKS
DODGE CITY     PTCLDY    88  62  41 S14       29.88R
ELKHART          N/A     80  60  50 S6          N/A
GARDEN CITY    PTCLDY    86  61  42 N5        29.89R
GREAT BEND     CLEAR     88  64  45 S10       29.85R
LIBERAL        CLOUDY    84  57  39 S10       29.92S
$$

KSZ066>073-081>083-090>101-220300-
SOUTHEAST KANSAS

CITY           SKY/WX    TMP DP  RH WIND       PRES   REMARKS
CHANUTE        CLEAR     85  71  63 S13       29.93R
COFFEYVILLE    CLEAR     86  72  62 S14       29.93R
HUTCHINSON     CLEAR     91  64  40 S12       29.87R
NEWTON         CLEAR     88  64  45 S13       29.93R
PARSONS        CLEAR     85  71  63 S8        29.94R
WICHITA INTL   PTCLDY    89  68  49 S15       29.88R
WICHITA JABRA  CLEAR     88  69  53 S13       29.89R
WINFIELD       CLEAR     87  70  56 S12       29.91R
$$

KSZ007>012-019>026-033>040-048>060-102>105-220300-
NORTHEAST KANSAS

CITY           SKY/WX    TMP DP  RH WIND       PRES   REMARKS
CONCORDIA      MOCLDY    86  69  56 S9        29.83R
EMPORIA        CLEAR     86  67  52 S10       29.89R
LAWRENCE       CLEAR     89  71  55 S12       29.87R HX  95
MANHATTAN      CLEAR     92  70  48 S8        29.85R HX  97
OLATHE IND     CLEAR     87  72  60 S13       29.90R
OLATHE EXE     CLEAR     85  72  65 S9        29.89R
SALINA         CLEAR     90  67  46 S12       29.84R
TOPEKA BILLARD CLEAR     92  71  50 S8        29.86R HX  98
TOPEKA FORBES  CLEAR     89  71  55 S10       29.87R HX  95
$$



USA.gov is the U.S. government's official web portal to all federal, state and local government web resources and services.